STARLINK-3736, 52113

Orbit data source: Space-Track

STARLINK-3736, 52113 is a payload satellite owned by SpaceX/Seattle (US) in LEO that was launched on Sat, 19 Mar 2022 UTC via an FALCON 9 launch vehicle from the Air Force Eastern Test Range (AFETR). Payload-class satellites include a variety of spacecraft equipped with specific instruments for various scientific and technological missions. These include communications satellites like Starlink; space stations such as the ISS; scientific satellites like the Hubble; Earth observation satellites from companies like Planet Labs, Umbra, and HawkEye 360; GPS; miniature CubeSats for education and research; and military/defense satellites.

Loading next visibility...
Identifier
52113, 2022-029AB
Orbit
LEO
Country
Flag of USUS
Related business
Manufacturer
SpaceX/Seattle
Mission
Operational Commercial Communications
Bus & Motor
STARLINK, Unknown motor
Mass
297 kg wet, ~275 kg dry
Launch date (UTC)
2022-03-19 (4 years ago)
Launch vehicle
FALCON 9
Launch site
Air Force Eastern Test Range (AFETR)
Object type
Payload
Rocket body
Debris
Shape & HBR
Box + 1 Pan, 10.1 m
Radar Cross Section
13.562 m², Large (>1 m²)

Expand to show TLE details & history
Last TLE update: 2 days ago

TLE from 2 days ago
0 STARLINK-3736
1 52113U 22029AB  26171.41668980  .00075060  00000-0  39786-2 0  9999
2 52113  53.1607 337.7467 0000636 119.0018 313.9618 15.14725400  5823
Epoch: 2026-06-20T10:00Z
TLE epoch observation values (Epoch: 2026-06-20T10:00:01.998Z)
Latitude
50.07127°
Longitude
-17.99966°
Altitude
527.351 km
Speed
7.606 km/s
True Right ascension
02h 42m 33s
True Declination
49° 53' 46"
Sunlit
Object was in daylight at epoch
Visualization orbit readout
Latitude
Unknown
Longitude
Unknown
Altitude
Unknown
Speed
Unknown
Apparent Right ascension
Unknown
Apparent Declination
Unknown
Sunlit
N/A
Visualization observer readout
Local Sidereal Time
23:08:41
Azimuth
Unknown
Elevation
Unknown
Doppler factor
Unknown
Orbital elements
Apogee altitude
522.506 km
Perigee altitude
521.628 km
Semi-major axis
6,900.204 km
Eccentricity
0.00006
Inclination
53.1607°
RAAN
337.7467°
Arg. of periapsis
119.0018°
True anomaly
313.95655°
Mean anomaly
313.9618°
Eccentric anomaly
313.95918°
Mean motion
3.78661 °/min
Orbital period
95.07 mins
BSTAR
0.0039786
Loading maneuver chart data...
Computing Atmospheric mass density...

Documentation

Showing up to 5 results
|